Location: Bessat
(45.8735°N, 1.9924°E)
Time: 11:53:53
(UTC+00:00)

USA 305 - Pass Details

Date: 11 May 2021
Orbit: 567 x 573 km, 54.0° (Epoch: 07 May)

Event Time Altitude Azimuth Distance (km) Brightness Sun altitude
Rises 22:01:07 0° 301° (WNW) 2,775 7.4 -21.5°
Reaches altitude 10° 22:03:24 10° 296° (WNW) 1,875 6.2 -21.7°
Enters shadow 22:07:27 51° 226° (SW) 718 3.2 -22.0°
